Terug naar catalogus

FENGYUN 1C DEB

ActiefPO
NORAD 38795·DEBRIS·🇨🇳 China

Gelanceerd May 10, 1999 vanaf Taiyuan Satellite Launch Center

Loading…

Volgende Passages (komende 24 uur)

TLE

VersSource: Space-Track

Epoch: Sep 11, 2026, 04:31 UTC

1 38795U 99025EUK 26254.18828045  .00000631  00000-0  71715-3 0  9996
2 38795  98.7047 240.8924 0494195 298.5404  56.6821 13.30882081821353

Volg FENGYUN 1C DEB in realtime met AllMySat

Download on the App Store